Kosmos-1091

operational
NORAD ID: 11320 Int'l Des: 1979-028 Owner: VMF Country: SU
LEOCIRCULARPOLAR

About Kosmos-1091

Description loading...

Live Position

Loading 3D Globe...

Upcoming Passes

Altitude History

Altitude vs Time

uPlot chart will show altitude changes over time

Two-Line Element Set

1 11320U 79028A 26063.46903492 .00000052 00000-0 38554-4 0 9993
2 11320 82.9235 211.0594 0031751 95.7101 326.1145 13.74911088352745
Epoch: Mar 4, 2026 • Age: 20 hours

Current Status

Altitude 976.4 km
Velocity 7.37 km/s
Sub-Earth Point 14.43°N, 81.02°W
Launch Date Apr 7, 1979
Age 46.9 years
Type other

Technical Details

Classification Payload
Mass 800.00 kg
Dry Mass 800.00 kg
Total Mass 800.00 kg
Length 5.00 m
Diameter 2.10 m
Span 17.00 m
Shape Cyl + Ant
Manufacturer OAZ
Bus Type KAUR-1 11F627
Phase Status In Orbit
Owner/State VMF/SU

Large Constellations

Loading constellations...